Date String (YYYY-MM-DD hh:mm:ss) UTC,Instrument flags,Ambient pressure (hPa),Sample flow (lpm),Bypass flow (lpm),Sample temperature (°C),Ambient temperature (°C),ASC tube jacket temperature (°C),LED temperature (°C),Box temperature (°C),Sample RH (%),Span deviation,Mass concentration (μg/m³),Mass concentration (μg/m³),Mass concentration (μg/m³)
DateTimeUTC,F1_M11,P_M11,Q1_M11,Q2_M11,T1_M11,T2_M11,T3_M11,T4_M11,T5_M11,U1_M11,ZSPAN_M11,X0_M11,X2_M11,X1_M11
2022-06-23 14:00:00,,0826.9,5.00,0.00,29.8,27.7,00.0,38.6,31.5,16.3,0000.0,0014.79,0004.94,0003.85
2022-06-23 14:01:00,,0826.9,5.00,0.00,29.8,27.8,00.0,38.6,31.5,16.8,0000.0,0014.58,0004.95,0003.86
2022-06-23 14:02:00,,0826.9,4.99,0.00,29.8,27.9,00.0,38.6,31.5,18.6,0000.0,0014.54,0004.97,0003.89
2022-06-23 14:03:00,,0826.9,5.00,0.00,29.7,28.1,00.0,38.6,31.5,19.3,0000.0,0014.34,0005.01,0003.91
2022-06-23 14:04:00,,0826.9,5.01,0.00,29.7,28.2,00.0,38.6,31.5,19.1,0000.0,0013.70,0005.02,0003.92
2022-06-23 14:05:00,,0826.9,5.00,0.00,29.7,28.3,00.0,38.6,31.6,19.2,0000.0,0013.40,0004.99,0003.93
2022-06-23 14:06:00,,0827.0,5.00,0.00,29.7,28.4,00.0,38.6,31.6,18.8,0000.0,0013.58,0004.98,0003.95
2022-06-23 14:07:00,,0826.9,5.00,0.00,29.8,28.5,00.0,38.6,31.6,18.1,0000.0,0014.06,0005.07,0003.98
2022-06-23 14:08:00,,0826.9,5.00,0.00,29.8,28.6,00.0,38.6,31.6,19.2,0000.0,0013.93,0005.07,0004.00
2022-06-23 14:09:00,,0827.0,5.00,0.00,29.8,28.6,00.0,38.6,31.7,19.4,0000.0,0012.70,0005.07,0004.02
2022-06-23 14:10:00,,0827.1,5.00,0.00,29.8,28.7,00.0,38.6,31.7,19.3,0000.0,0011.86,0005.14,0004.04
2022-06-23 14:11:00,,0826.9,5.00,0.00,29.8,28.7,00.0,38.6,31.7,19.3,0000.0,0012.32,0005.21,0004.07
2022-06-23 14:12:00,,0826.9,5.00,0.00,29.8,28.8,00.0,38.6,31.7,19.7,0000.0,0012.59,0005.29,0004.08
2022-06-23 14:13:00,,0826.9,4.99,0.00,29.9,28.9,00.0,38.6,31.7,18.8,0000.0,0012.58,0005.30,0004.10
2022-06-23 14:14:00,,0826.9,5.00,0.00,29.9,28.9,00.0,38.7,31.7,19.0,0000.0,0013.09,0005.29,0004.10
2022-06-23 14:15:00,,0826.9,5.00,0.00,29.9,28.9,00.0,38.7,31.8,18.7,0000.0,0013.73,0005.31,0004.10
2022-06-23 14:16:00,,0826.9,5.00,0.00,29.9,28.9,00.0,38.7,31.8,19.2,0000.0,0015.60,0005.41,0004.11
2022-06-23 14:17:00,,0826.9,5.00,0.00,29.9,28.3,00.0,38.6,31.7,19.5,0000.0,0015.71,0005.47,0004.12
2022-06-23 14:18:00,,0826.9,5.00,0.00,29.8,27.7,00.0,38.6,31.5,20.3,0000.0,0015.55,0005.50,0004.12
2022-06-23 14:19:00,,0826.9,5.00,0.00,29.8,27.6,00.0,38.5,31.5,20.8,0000.0,0016.62,0005.49,0004.12
2022-06-23 14:20:00,,0826.9,5.01,0.00,29.7,27.6,00.0,38.5,31.4,20.5,0000.0,0016.00,0005.47,0004.12
2022-06-23 14:21:00,,0826.9,5.00,0.00,29.7,27.7,00.0,38.5,31.4,19.5,0000.0,0017.14,0005.46,0004.12
2022-06-23 14:22:00,,0826.8,5.00,0.00,29.7,27.9,00.0,38.5,31.4,18.9,0000.0,0017.93,0005.46,0004.12
2022-06-23 14:23:00,,0826.9,5.00,0.00,29.7,28.0,00.0,38.5,31.5,18.4,0000.0,0017.88,0005.44,0004.12
2022-06-23 14:24:00,,0826.8,5.00,0.00,29.7,28.1,00.0,38.5,31.5,18.3,0000.0,0017.98,0005.46,0004.12
2022-06-23 14:25:00,,0826.8,5.00,0.00,29.7,28.2,00.0,38.5,31.5,18.0,0000.0,0017.82,0005.48,0004.11
2022-06-23 14:26:00,,0826.8,5.00,0.00,29.7,28.3,00.0,38.5,31.5,17.8,0000.0,0018.25,0005.53,0004.12
2022-06-23 14:27:00,,0826.8,5.00,0.00,29.7,28.4,00.0,38.5,31.6,17.7,0000.0,0017.68,0005.54,0004.12
2022-06-23 14:28:00,,0826.9,5.01,0.00,29.7,28.5,00.0,38.5,31.6,17.6,0000.0,0017.67,0005.52,0004.12
2022-06-23 14:29:00,,0826.9,5.00,0.00,29.7,28.6,00.0,38.5,31.6,17.4,0000.0,0017.46,0005.49,0004.12
2022-06-23 14:30:00,,0826.9,4.99,0.00,29.8,28.7,00.0,38.5,31.6,17.6,0000.0,0016.22,0005.49,0004.12
2022-06-23 14:31:00,,0826.9,5.00,0.00,29.8,28.7,00.0,38.6,31.7,17.6,0000.0,0016.13,0005.52,0004.12
2022-06-23 14:32:00,,0826.9,5.00,0.00,29.8,28.8,00.0,38.6,31.7,17.9,0000.0,0015.01,0005.50,0004.13
2022-06-23 14:33:00,,0826.9,5.01,0.00,29.8,28.8,00.0,38.6,31.7,18.4,0000.0,0014.34,0005.51,0004.12
2022-06-23 14:34:00,,0826.9,4.99,0.00,29.8,28.3,00.0,38.5,31.6,18.0,0000.0,0015.00,0005.47,0004.10
2022-06-23 14:35:00,,0826.9,5.00,0.00,29.7,27.6,00.0,38.5,31.4,17.4,0000.0,0015.33,0005.44,0004.09
2022-06-23 14:36:00,,0826.9,5.01,0.00,29.7,27.5,00.0,38.4,31.4,17.4,0000.0,0015.40,0005.35,0004.07
2022-06-23 14:37:00,,0826.9,4.99,0.00,29.6,27.5,00.0,38.4,31.4,17.1,0000.0,0015.04,0005.25,0004.04
2022-06-23 14:38:00,,0826.9,5.00,0.00,29.6,27.7,00.0,38.4,31.4,16.9,0000.0,0015.03,0005.16,0004.02
2022-06-23 14:39:00,,0826.9,5.00,0.00,29.6,27.8,00.0,38.4,31.4,16.9,0000.0,0015.80,0005.14,0004.00
2022-06-23 14:40:00,,0827.1,5.01,0.00,29.6,27.9,00.0,38.4,31.4,17.3,0000.0,0015.69,0005.12,0003.98
2022-06-23 14:41:00,,0826.9,5.00,0.00,29.6,28.1,00.0,38.4,31.4,17.4,0000.0,0015.61,0005.08,0003.96
2022-06-23 14:42:00,,0827.0,5.00,0.00,29.6,28.2,00.0,38.4,31.4,17.5,0000.0,0015.55,0005.06,0003.95
2022-06-23 14:43:00,,0827.0,5.00,0.00,29.6,28.3,00.0,38.4,31.5,17.8,0000.0,0016.18,0005.03,0003.91
2022-06-23 14:44:00,,0827.0,4.99,0.00,29.6,28.4,00.0,38.4,31.5,17.5,0000.0,0016.80,0005.02,0003.90
2022-06-23 14:45:00,,0827.0,5.00,0.00,29.6,28.5,00.0,38.4,31.5,17.5,0000.0,0016.27,0005.02,0003.90
2022-06-23 14:46:00,,0827.2,5.00,0.00,29.7,28.6,00.0,38.5,31.6,17.9,0000.0,0016.91,0005.02,0003.91
2022-06-23 14:47:00,,0827.1,5.00,0.00,29.7,28.7,00.0,38.5,31.6,18.3,0000.0,0017.52,0005.09,0003.92
2022-06-23 14:48:00,,0827.0,5.00,0.00,29.7,28.7,00.0,38.5,31.6,18.6,0000.0,0019.39,0005.13,0003.94
2022-06-23 14:49:00,,0827.3,5.00,0.00,29.7,28.7,00.0,38.5,31.7,18.9,0000.0,0019.15,0005.13,0003.94
2022-06-23 14:50:00,,0827.1,5.00,0.00,29.7,28.2,00.0,38.4,31.6,18.7,0000.0,0018.37,0005.16,0003.96
2022-06-23 14:51:00,,0826.9,5.00,0.00,29.7,27.6,00.0,38.4,31.4,19.0,0000.0,0018.43,0005.22,0003.98
2022-06-23 14:52:00,,0826.9,5.00,0.00,29.6,27.5,00.0,38.4,31.3,18.5,0000.0,0019.14,0005.27,0004.00
2022-06-23 14:53:00,,0826.9,5.01,0.00,29.6,27.6,00.0,38.4,31.3,18.5,0000.0,0020.09,0005.28,0004.02
2022-06-23 14:54:00,,0827.0,5.00,0.00,29.5,27.7,00.0,38.4,31.3,18.6,0000.0,0020.64,0005.34,0004.04
2022-06-23 14:55:00,,0826.9,5.00,0.00,29.5,27.8,00.0,38.3,31.3,18.8,0000.0,0021.12,0005.38,0004.05
2022-06-23 14:56:00,,0826.9,5.00,0.00,29.5,27.9,00.0,38.3,31.3,19.0,0000.0,0022.57,0005.44,0004.06
2022-06-23 14:57:00,,0826.9,5.01,0.00,29.5,28.0,00.0,38.4,31.4,18.8,0000.0,0022.80,0005.49,0004.07
2022-06-23 14:58:00,,0827.0,5.00,0.00,29.5,28.2,00.0,38.4,31.4,18.8,0000.0,0022.68,0005.50,0004.07
2022-06-23 14:59:00,,0826.9,5.01,0.00,29.6,28.3,00.0,38.4,31.4,18.2,0000.0,0021.29,0005.50,0004.07
